This is the latest recevied weather packets stored in our database for station/object TA6B-11. If no packets are shown the sender has not sent any weather packets the latest 10 day(s).
| Time | Temp. | Humidity | Pressure | Rain* | Wind** | Luminosity | Snow |
|---|---|---|---|---|---|---|---|
| 1777535402 | 17.78° C | 40% | 1006 hPa | - | - | 0 W/m² | - |
| 1777533346 | 17.22° C | 43% | 1005 hPa | - | - | 0 W/m² | - |
| 1777532224 | 17.22° C | 45% | 1005 hPa | - | - | 0 W/m² | - |
| 1777531559 | 16.67° C | 43% | 1005 hPa | - | - | 0 W/m² | - |
| 1777530710 | 16.67° C | 38% | 1005 hPa | - | - | 0 W/m² | - |
| 1777530000 | 16.67° C | 38% | 1005 hPa | - | - | 0 W/m² | - |
| 1777529170 | 16.11° C | 40% | 1006 hPa | - | - | 0 W/m² | - |
| 1777527536 | 15.56° C | 42% | 1006 hPa | - | - | 0 W/m² | - |
| 1777526915 | 15.56° C | 43% | 1006 hPa | - | - | 0 W/m² | - |
| 1777526189 | 15° C | 47% | 1006 hPa | - | - | 0 W/m² | - |
| 1777524765 | 14.44° C | 49% | 1006 hPa | - | - | 0 W/m² | - |
| 1777524439 | 14.44° C | 49% | 1006 hPa | - | - | 0 W/m² | - |
| 1777524112 | 14.44° C | 49% | 1006 hPa | - | - | 0 W/m² | - |
| 1777523786 | 14.44° C | 49% | 1006 hPa | - | - | 0 W/m² | - |
| 1777523461 | 13.89° C | 49% | 1006 hPa | - | - | 0 W/m² | - |
| 1777523135 | 13.89° C | 49% | 1006 hPa | - | - | 0 W/m² | - |
| 1777522812 | 13.89° C | 49% | 1006 hPa | - | - | 0 W/m² | - |
| 1777522485 | 13.89° C | 50% | 1006 hPa | - | - | 0 W/m² | - |
| 1777522160 | 13.33° C | 50% | 1006 hPa | - | - | 0 W/m² | - |
| 1777521834 | 13.33° C | 51% | 1006 hPa | - | - | 0 W/m² | - |
| 1777521508 | 12.78° C | 51% | 1006 hPa | - | - | 0 W/m² | - |
| 1777521182 | 12.78° C | 51% | 1006 hPa | - | - | 0 W/m² | - |
| 1777520855 | 12.78° C | 51% | 1006 hPa | - | - | 0 W/m² | - |
| 1777520528 | 12.78° C | 51% | 1006 hPa | - | - | 0 W/m² | - |
| 1777520202 | 12.78° C | 51% | 1006 hPa | - | - | 0 W/m² | - |
* Rain since midnight (hover to see other rain measurements)
** Current wind speed in m/s (hover to see current wind gust speed)